Location: Three Forks Visitor's Center
(58.3672°N, 155.3776°W)
Time: 12:31:29
(UTC-08:00)

N. Korean satellite - Visible Passes

Search period start: 19 October 2019 00:00
Search period end: 29 October 2019 00:00
Orbit: 455 x 508 km, 97.2° (Epoch: 19 October)

Date Brightness Start Highest point End Pass type
(mag) Time Alt. Az. Time Alt. Az. Time Alt. Az.
19 Oct 7.9 08:10:58 10° NNE 08:14:26 45° E 08:17:56 10° S visible
19 Oct 10.0 20:29:55 10° SW 20:32:04 16° W 20:34:15 10° NW visible
20 Oct 9.1 07:45:53 10° NE 07:49:00 27° E 07:52:08 10° SSE visible
20 Oct 9.2 20:03:36 10° SSW 20:06:31 25° W 20:09:31 10° NW visible
21 Oct 9.9 07:21:04 10° NE 07:23:28 17° E 07:25:53 10° SE visible
21 Oct 7.9 19:37:44 10° S 19:41:04 44° W 19:44:26 10° NNW visible
22 Oct 10.6 06:57:26 10° ENE 06:57:52 10° E 06:58:17 10° E visible
22 Oct 7.0 08:28:21 10° NNE 08:31:58 69° ESE 08:35:36 10° S visible
22 Oct 10.4 20:48:46 10° W 20:49:45 11° W 20:50:44 10° WNW visible
23 Oct 8.3 08:03:08 10° NNE 08:06:34 39° E 08:10:02 10° SSE visible
23 Oct 9.8 20:21:40 10° SW 20:24:08 18° W 20:26:39 10° NW visible
24 Oct 9.3 07:38:06 10° NE 07:41:06 24° E 07:44:07 10° SSE visible
24 Oct 8.8 19:55:30 10° SSW 19:58:36 30° W 20:01:46 10° NNW visible
25 Oct 10.1 07:13:25 10° NE 07:15:32 15° E 07:17:40 10° ESE visible
25 Oct 7.5 19:29:45 10° S 19:33:09 53° W 19:36:38 10° NNW visible
26 Oct 7.4 08:20:29 10° NNE 08:24:05 58° ESE 08:27:44 10° S visible
26 Oct 10.1 20:40:04 10° WSW 20:41:46 13° W 20:43:29 10° WNW visible
27 Oct 8.6 07:55:18 10° NNE 07:58:40 33° E 08:02:03 10° SSE visible
27 Oct 9.5 20:13:25 10° SW 20:16:10 21° W 20:18:58 10° NW visible
28 Oct 9.6 07:30:19 10° NE 07:33:10 21° E 07:36:00 10° SE visible
28 Oct 8.4 19:47:24 10° SSW 19:50:39 35° W 19:53:58 10° NNW visible
